Theta_e
325 325 324 324 325 325 333 329 330 334 325 330 329 330 327 320 324 323 319 319 324 317 313 317 315 315 317 319 320 319 314 317 322 323 321 305 297 297 297 296 295 295 295 297 297 297 295 297 301 302 302 301 301 301 301 301 301 301 301 301 302 302 302 302 302 302 302 302 302 302 302 301 301 302 302 302 302 302 303 303 303 304 305 305 306 306 307 307 308 308 309 309 310 311 311 312 312
326 325 324 324 322 326 339 331 327 327 320 326 326 329 326 319 326 323 320 322 322 315 315 317 314 314 315 317 315 316 314 309 309 309 305 298 297 297 295 295 294 294 295 295 295 295 294 296 301 301 300 301 300 301 300 300 300 300 300 300 300 301 301 302 302 302 301 301 301 301 301 301 301 301 301 301 301 302 302 302 302 303 304 304 305 305 305 305 306 307 307 308 308 309 310 310 310
324 323 323 323 325 326 332 328 322 321 319 329 329 324 322 326 329 323 322 321 318 315 316 314 315 315 314 318 314 315 315 306 303 301 298 297 297 295 295 294 294 294 294 294 294 295 293 296 300 299 299 300 299 300 299 299 299 299 299 299 299 299 300 301 301 301 301 301 301 300 300 300 300 300 300 301 301 301 301 301 301 302 303 303 303 304 304 304 305 305 305 306 307 308 308 308 308
320 320 321 320 328 327 325 324 323 327 325 330 331 321 323 329 325 320 319 318 316 315 314 313 314 312 311 317 314 314 313 305 302 299 297 297 298 296 294 294 294 294 293 294 294 294 291 294 297 297 299 298 298 298 298 298 298 298 298 298 298 298 299 299 300 300 300 300 300 300 300 300 300 300 300 300 300 300 300 300 301 301 301 302 302 303 303 303 303 304 304 304 305 306 307 307 307
319 319 320 319 327 326 321 320 325 336 329 328 332 325 326 324 320 317 317 317 317 317 317 316 315 311 309 311 311 313 310 305 301 299 298 297 297 295 294 294 293 293 293 293 293 293 290 292 293 294 297 297 297 297 297 298 297 298 297 297 297 297 298 298 298 299 299 299 299 299 299 299 299 299 299 299 300 300 300 300 300 300 301 301 301 302 302 302 302 302 303 303 304 305 305 305 305
320 319 321 320 322 323 320 315 320 330 323 324 328 325 325 320 318 318 317 317 317 318 317 315 315 313 310 306 307 310 307 305 301 299 299 298 297 294 294 294 293 293 292 293 293 292 291 292 292 292 294 296 297 296 296 297 297 297 297 297 296 297 297 297 297 297 298 298 298 298 298 298 298 298 298 298 299 299 299 299 299 300 300 300 300 301 301 301 301 301 301 302 303 303 303 304 303
318 320 324 321 321 321 322 319 320 323 316 319 324 324 324 318 316 318 317 316 315 317 313 314 314 310 310 305 305 305 303 304 301 300 300 299 298 293 293 294 293 293 292 293 293 292 291 291 292 291 292 294 295 295 295 295 296 296 296 296 296 296 296 297 296 296 297 296 297 297 297 297 297 298 297 297 298 299 298 298 298 299 299 299 300 300 300 300 300 300 300 301 302 302 302 302 302
318 321 324 323 323 321 321 323 321 321 319 319 322 322 322 317 316 317 318 317 315 314 313 315 312 308 310 307 307 304 301 302 301 300 299 299 298 293 294 294 293 293 292 293 292 292 291 291 292 291 292 292 293 293 293 293 294 294 295 295 295 295 296 296 296 296 296 295 295 295 296 296 296 297 297 296 297 297 298 297 297 297 298 298 299 299 299 299 299 299 299 300 300 301 301 301 300
319 318 322 323 322 320 318 320 319 317 319 321 321 320 319 317 317 318 318 316 315 314 314 315 310 308 310 308 306 302 298 301 300 299 298 298 297 294 294 293 293 293 292 292 292 292 292 292 291 291 292 292 292 292 292 292 291 292 293 294 294 294 294 296 295 295 295 295 294 294 294 295 295 296 295 296 296 296 297 296 296 296 296 297 298 298 299 299 299 299 299 299 299 299 299 299 298
321 317 321 323 319 319 316 316 317 315 316 320 320 317 317 318 318 319 318 315 316 314 312 313 309 307 309 310 307 301 298 299 299 297 297 297 296 294 294 294 293 293 292 292 292 292 292 292 291 291 291 291 291 291 291 291 290 291 291 292 292 292 292 294 294 293 294 293 293 293 293 293 293 294 294 295 295 295 296 295 295 295 295 296 297 298 298 298 298 298 298 298 298 298 298 298 297
324 324 322 320 319 318 316 317 315 314 315 317 318 317 316 317 317 318 318 313 312 312 310 309 309 308 307 309 308 301 298 298 298 297 297 297 295 294 294 294 293 293 293 293 292 292 292 292 292 291 291 291 290 290 291 291 290 290 291 290 291 291 290 291 292 291 292 291 292 292 291 291 291 292 293 294 294 294 295 295 294 295 295 296 296 297 297 297 297 297 297 297 297 297 297 296 296
324 330 323 317 320 317 316 320 316 314 314 315 315 316 316 315 314 316 317 312 309 310 309 308 308 308 306 307 306 299 297 298 298 297 296 296 295 294 294 294 294 294 293 293 292 292 292 292 292 292 291 291 291 291 291 291 291 290 290 290 290 290 290 290 290 290 290 290 290 290 289 289 289 292 293 293 293 293 294 294 293 294 294 295 296 296 296 296 296 296 296 297 296 296 296 295 295
320 325 319 318 324 318 317 320 317 316 313 315 315 313 314 313 313 316 316 312 309 309 308 307 305 305 305 305 302 297 297 297 297 297 296 296 295 294 294 294 294 294 293 293 292 292 292 292 292 292 292 292 291 291 291 291 291 291 291 290 290 290 290 290 289 290 289 289 289 289 288 288 289 291 291 292 292 292 293 293 292 292 293 295 295 296 296 295 294 295 295 295 295 295 294 294 293
320 320 316 320 324 317 320 319 316 318 314 313 312 311 313 311 312 314 313 311 309 308 307 305 304 304 303 302 301 297 297 297 297 297 296 296 295 294 294 294 294 294 293 293 293 292 292 292 292 292 292 292 292 292 292 292 291 291 291 290 290 290 290 290 290 290 289 289 289 288 288 287 288 288 289 289 290 291 291 291 290 291 293 294 295 295 295 294 294 294 295 294 294 294 293 293 291
318 320 319 320 321 316 317 316 317 321 314 310 311 310 310 308 310 311 309 309 307 305 304 304 303 304 303 303 303 299 298 298 297 296 296 296 295 295 294 294 294 294 293 293 293 292 292 292 292 292 292 292 292 292 292 292 292 291 291 291 291 291 291 290 290 289 289 289 288 288 287 287 287 287 286 286 287 289 289 288 288 291 293 293 294 294 294 294 293 294 294 293 294 293 292 291 289
317 324 324 320 320 318 313 312 318 321 312 309 310 309 309 307 308 308 305 305 306 303 303 305 303 303 303 302 302 300 298 298 297 296 296 295 295 295 294 294 294 294 293 293 293 293 292 292 292 292 292 292 292 292 292 292 292 291 291 291 291 291 291 290 290 289 289 289 288 288 288 287 287 287 286 285 286 287 286 287 288 290 291 292 293 293 293 292 292 293 293 292 293 292 291 290 287
323 329 325 321 320 317 311 309 313 316 311 309 309 308 309 307 307 306 303 303 305 304 304 304 303 303 302 301 300 299 299 298 297 296 295 295 295 295 294 294 294 294 294 293 293 293 293 292 292 292 292 292 292 292 292 292 292 291 291 291 291 291 291 290 290 290 289 289 289 288 288 288 287 287 287 286 285 285 285 286 288 289 290 291 292 291 291 291 291 292 292 292 291 291 290 288 285
323 325 321 318 316 312 308 306 307 310 311 309 308 309 309 307 307 304 302 303 304 303 304 303 303 302 300 299 299 299 299 298 297 296 295 295 294 294 294 294 294 294 294 294 294 293 293 293 293 293 292 292 292 292 292 292 292 292 291 291 291 291 291 290 290 290 289 289 289 288 288 288 287 287 287 286 285 285 285 286 287 288 289 290 290 290 290 290 290 290 291 290 290 290 288 286 285
314 317 320 316 313 309 305 305 305 306 309 309 308 308 307 307 307 303 303 305 304 304 304 303 303 302 298 298 298 298 298 297 296 295 295 294 294 294 294 294 294 294 294 294 294 294 294 294 294 293 293 292 292 292 292 292 292 292 291 291 291 291 291 290 290 290 289 289 289 289 289 288 288 287 287 286 285 285 285 285 285 286 287 287 287 287 287 288 288 289 289 288 288 288 286 285 284
312 318 320 312 309 306 303 305 305 304 306 307 308 307 305 305 304 302 303 306 305 305 305 304 303 302 299 297 297 297 297 296 296 295 294 294 294 294 294 294 294 294 295 295 295 295 295 294 294 294 293 293 292 292 292 292 292 292 291 291 291 291 291 290 290 290 289 289 289 289 288 288 288 287 287 287 286 285 285 285 285 285 285 285 285 285 285 286 287 287 286 286 286 285 285 285 284
315 318 314 307 307 306 304 304 304 304 305 306 306 305 304 304 303 302 304 305 305 305 304 304 304 303 299 296 295 296 296 295 295 295 294 294 294 294 295 295 295 295 296 296 296 296 295 295 295 294 294 293 293 292 292 292 292 292 292 291 291 291 291 290 290 290 289 289 289 288 288 288 287 287 287 287 286 285 285 284 284 284 284 284 284 284 284 285 285 285 285 285 285 285 285 284 284
311 310 307 305 306 306 304 303 304 305 305 305 306 305 304 304 303 303 304 304 306 308 307 307 305 303 300 296 295 295 295 294 294 294 294 294 295 295 295 295 296 296 296 296 296 296 296 296 295 295 294 293 293 293 293 292 292 292 292 292 291 291 291 290 290 290 290 289 289 288 288 288 287 287 287 287 286 285 285 285 284 284 284 284 284 284 284 285 285 285 285 285 284 284 284 284 284
312 307 303 304 305 305 304 303 303 303 304 305 305 304 303 304 304 304 304 304 305 308 309 310 305 302 300 296 295 295 295 294 294 294 294 295 295 295 296 296 296 296 297 297 297 297 296 296 296 295 294 294 294 293 293 293 293 293 292 292 292 292 291 291 291 290 290 289 289 289 288 288 288 287 287 287 286 286 285 285 284 284 284 284 284 284 284 284 285 285 285 285 284 284 284 284 284
317 309 303 304 304 305 304 303 303 302 304 304 303 302 302 304 304 304 304 303 304 304 305 305 302 301 300 298 296 295 295 294 294 295 295 296 296 296 296 296 297 297 297 297 297 297 297 296 296 295 295 295 294 294 293 293 293 293 293 292 292 292 291 291 291 290 290 289 289 289 288 288 288 287 287 287 286 286 286 285 284 284 284 284 283 283 284 284 284 285 285 284 284 284 284 284 283
315 308 304 303 303 303 303 303 302 302 303 302 302 302 303 303 302 302 302 302 303 302 302 303 302 302 301 302 300 296 295 295 295 295 296 296 297 297 297 297 297 297 297 297 297 297 297 297 296 296 296 295 295 294 294 294 293 293 293 293 292 292 292 291 291 291 290 289 289 289 288 288 288 287 287 287 286 286 286 285 285 284 284 283 283 283 283 283 284 284 284 284 284 284 283 283 283
311 307 304 303 303 303 302 302 302 302 302 302 302 302 303 303 301 302 302 302 302 302 302 305 305 304 303 303 302 298 295 295 295 296 296 297 297 297 297 298 298 298 298 298 297 297 297 297 297 296 296 296 295 295 294 294 294 293 293 293 293 292 292 291 291 291 290 290 289 289 288 288 288 287 287 287 286 286 286 285 285 284 284 283 283 283 283 283 284 284 284 284 284 284 283 283 283
309 308 306 304 303 303 303 302 302 302 302 302 302 302 303 302 301 304 305 304 303 303 302 303 304 304 303 302 301 298 296 296 297 297 298 298 298 298 298 298 298 299 298 298 298 298 297 297 297 296 296 296 295 295 295 294 294 294 294 293 293 292 292 291 291 291 290 290 289 289 288 288 287 287 287 286 286 286 285 285 285 284 284 283 283 283 283 283 283 284 284 284 284 283 283 283 283
306 307 306 306 304 303 303 302 303 302 302 303 301 301 302 300 302 305 304 304 304 304 303 302 303 303 302 302 302 298 296 298 299 299 299 299 299 299 299 299 299 299 298 298 298 298 298 297 297 297 296 296 296 295 295 295 294 294 294 293 293 292 292 291 291 291 290 290 289 289 288 288 287 287 286 286 286 285 285 285 284 284 284 283 283 283 283 282 283 283 283 283 283 283 283 282 283
306 305 308 309 302 302 304 302 303 303 302 302 302 306 306 301 304 307 303 302 304 304 303 303 303 302 302 302 302 299 297 298 299 299 299 299 299 300 299 299 299 299 299 298 298 298 298 297 297 297 297 296 296 296 295 295 294 294 294 293 293 292 292 291 291 291 290 290 289 289 288 288 287 287 286 286 286 285 285 284 284 284 283 283 282 282 282 282 282 282 283 283 283 282 282 282 282
308 306 310 310 305 309 307 302 303 302 303 303 304 310 311 305 306 307 303 302 303 303 303 303 302 302 302 302 302 301 297 298 299 299 299 299 299 299 299 299 299 299 298 298 298 298 298 297 297 297 297 297 296 296 295 295 294 294 293 293 293 292 292 291 291 291 290 290 289 289 288 287 287 287 286 286 285 285 285 284 284 284 283 282 282 282 282 282 282 282 282 282 282 282 282 282 282
310 308 314 312 311 317 308 302 304 302 302 304 305 310 311 308 308 306 302 302 303 303 303 302 302 301 301 302 302 301 299 298 299 299 299 299 299 299 299 299 298 298 298 297 297 297 297 297 296 296 296 296 296 296 295 295 294 294 294 293 293 292 292 291 291 290 290 289 289 288 288 287 287 286 286 286 285 285 284 284 284 283 283 282 282 282 281 282 282 282 282 282 282 281 282 282 281
309 311 324 321 314 317 308 302 305 303 302 303 306 313 314 308 307 306 303 302 303 303 303 303 303 302 301 302 301 302 301 298 299 300 300 300 299 299 299 298 298 297 297 297 297 296 296 296 296 295 295 295 295 295 295 295 294 294 294 293 293 292 291 291 291 290 290 289 289 288 288 287 287 286 286 285 285 285 284 284 283 283 282 282 281 281 281 281 282 282 282 281 281 281 281 281 281
315 313 322 321 313 315 312 306 305 304 303 303 304 310 312 308 305 304 302 302 302 303 304 304 304 303 301 301 301 302 301 299 299 299 299 299 299 299 298 298 298 297 297 296 296 296 296 296 296 295 295 295 294 294 294 294 294 294 293 293 293 292 291 291 290 290 289 289 288 288 288 287 287 286 286 285 285 284 284 283 283 283 282 281 281 281 281 281 281 281 281 281 281 281 281 281 281
324 320 318 318 316 313 314 311 305 304 305 305 305 306 309 308 305 303 303 303 302 302 303 304 304 304 302 302 302 302 303 303 300 298 299 299 299 299 298 298 298 298 297 296 296 296 296 295 295 295 294 294 294 293 293 293 293 293 293 293 292 292 291 291 290 289 289 288 288 288 287 287 286 286 285 285 284 284 284 283 283 283 282 281 281 281 281 281 281 281 281 281 281 281 281 281 281
322 321 318 319 319 312 313 315 308 304 305 307 308 307 308 307 304 304 306 305 302 302 303 304 304 304 304 303 303 303 304 304 300 298 299 299 299 299 299 298 298 297 296 295 296 296 295 295 295 294 294 294 293 293 293 292 292 292 292 292 291 291 291 290 290 289 289 288 288 288 287 287 286 286 285 285 284 284 283 283 283 283 282 281 281 281 281 281 281 281 281 280 280 280 280 280 281
317 317 315 314 316 312 312 313 309 306 305 308 309 308 308 307 305 304 307 307 303 302 303 304 304 304 304 304 304 304 303 302 299 299 300 299 299 299 299 298 297 296 296 296 296 296 295 295 295 294 294 294 293 293 293 292 292 291 291 291 291 291 290 290 290 289 289 288 288 287 287 286 286 286 285 285 284 284 283 283 283 282 282 281 281 281 281 281 280 280 280 280 280 280 280 280 280
310 312 314 314 314 312 311 311 309 306 306 313 313 309 308 306 304 304 305 306 303 303 304 303 303 303 304 304 303 302 301 301 300 299 300 299 300 299 298 298 297 296 296 296 296 295 295 295 295 294 294 294 293 293 292 292 292 291 291 290 290 290 290 289 289 289 288 288 288 287 287 286 286 285 285 285 284 284 283 283 283 282 282 281 281 281 281 280 280 280 280 280 280 280 280 280 280
309 311 311 312 313 311 311 309 308 306 306 314 314 308 307 305 304 304 304 304 303 303 303 303 303 304 304 304 302 301 300 300 298 298 299 299 299 299 298 297 296 296 296 296 296 295 295 295 294 294 294 294 293 292 292 292 291 291 290 290 290 289 289 289 288 288 288 287 287 287 286 286 285 285 285 284 284 284 283 283 282 282 282 281 281 280 280 280 280 280 280 280 280 279 279 280 280
309 311 310 311 315 313 312 309 307 306 305 310 312 306 305 304 304 304 303 304 304 303 304 303 303 304 303 301 300 300 300 299 298 297 297 298 299 298 298 297 296 296 296 296 296 295 295 295 294 294 294 293 293 292 291 291 291 290 290 290 289 289 289 289 288 288 287 287 287 287 286 286 285 285 285 284 284 283 283 283 282 282 282 281 280 280 280 280 280 279 279 279 279 279 279 279 279
311 311 310 313 316 312 313 313 308 307 307 308 309 307 306 305 304 304 303 305 305 304 305 304 302 302 300 300 300 300 300 299 299 298 297 297 299 298 297 296 296 296 296 296 295 295 295 294 294 294 294 293 293 292 291 291 291 290 290 289 289 289 288 288 288 287 287 287 287 286 286 286 285 285 285 284 284 284 283 283 282 282 281 281 280 280 280 280 279 279 279 279 279 279 279 279 279
318 313 310 314 312 307 310 313 308 308 311 309 306 309 313 309 304 303 303 303 303 304 305 303 301 300 300 300 300 300 300 300 300 300 298 297 298 298 297 296 296 296 295 295 295 295 295 294 294 294 293 293 292 292 291 291 290 290 290 289 289 288 288 288 287 287 287 287 286 286 286 286 285 285 285 284 284 284 283 283 282 282 281 281 280 280 280 279 279 279 279 279 279 278 278 278 278
317 313 308 309 308 306 309 311 309 309 313 310 305 310 319 315 306 303 303 303 303 303 303 301 300 300 300 300 299 299 300 300 300 300 298 297 298 297 297 296 296 295 295 295 295 294 294 294 294 294 293 293 293 292 292 291 291 290 290 289 289 288 288 288 287 287 287 286 286 286 286 285 285 285 284 284 284 283 283 283 282 282 281 281 280 280 280 279 279 279 279 278 278 278 278 278 278
312 309 306 306 305 306 308 309 308 309 311 308 304 308 314 314 309 304 303 304 303 302 302 300 300 300 300 299 299 299 300 301 300 299 297 296 298 297 296 296 295 295 295 294 294 294 294 294 294 293 293 293 292 292 292 292 291 290 290 289 289 288 288 287 287 287 287 286 286 286 285 285 285 285 284 284 283 283 283 282 282 282 281 280 280 280 279 279 279 279 278 278 278 278 278 278 278
311 308 304 305 305 305 307 306 306 308 308 306 305 307 308 310 310 305 303 304 303 302 301 300 300 300 299 300 300 300 300 300 301 300 298 296 297 297 295 295 295 295 295 294 294 294 294 294 293 293 293 292 292 292 291 291 291 291 290 289 289 288 288 288 288 287 287 287 286 286 286 285 285 284 284 284 283 283 282 282 282 281 281 280 280 280 279 279 279 278 278 278 278 278 278 278 278
309 307 304 304 303 304 305 304 306 307 305 308 310 306 306 312 311 303 302 304 303 302 301 301 300 300 300 300 300 301 300 300 299 299 298 296 296 296 295 295 295 294 294 294 294 294 294 294 293 293 292 292 292 291 291 291 291 290 290 290 289 289 289 288 288 288 287 287 287 286 286 286 285 284 284 284 283 283 282 282 281 281 281 280 280 280 279 279 278 278 278 278 277 277 277 277 277
307 306 304 305 304 303 304 303 306 305 304 312 314 307 306 313 312 303 302 304 302 301 301 301 301 301 301 301 301 301 300 300 299 296 296 296 296 295 295 295 294 294 294 293 293 293 293 293 293 292 292 292 292 292 291 291 291 290 290 290 289 289 289 289 288 288 287 287 287 287 286 286 286 285 284 284 283 283 282 282 281 281 281 280 280 279 279 279 279 278 278 278 277 277 277 277 277
304 304 305 309 307 304 304 304 305 305 310 316 312 307 306 309 310 305 303 306 303 302 301 300 301 301 301 301 301 301 300 300 299 296 294 296 296 295 295 294 293 294 293 293 292 292 292 292 292 291 291 291 292 291 291 291 291 291 290 290 290 289 289 288 288 288 288 287 287 286 286 286 285 285 284 284 283 283 282 281 281 281 280 280 279 279 279 279 278 278 278 277 277 277 277 277 277
304 306 307 309 309 306 305 307 307 309 317 316 307 306 306 308 311 306 302 305 304 303 302 301 301 301 301 301 301 301 300 299 300 298 296 295 295 294 294 293 293 293 293 292 292 291 291 291 291 290 290 291 291 291 291 291 291 291 290 290 290 289 289 288 288 288 288 287 287 287 287 286 285 285 284 284 283 283 282 281 281 280 280 279 279 279 279 278 278 278 278 277 277 277 277 277 277
306 309 309 310 314 311 310 311 311 313 316 311 304 305 306 307 308 304 301 303 303 304 304 302 301 300 300 300 300 300 300 299 299 299 296 293 293 293 293 293 293 292 292 291 291 290 290 290 290 290 290 289 289 289 289 290 290 290 290 290 290 289 289 289 288 288 288 288 287 287 287 286 286 285 284 284 283 283 282 281 281 280 280 279 279 279 279 278 278 278 277 277 277 277 277 277 277
306 308 308 311 313 309 310 313 311 312 314 307 302 304 308 308 303 301 302 301 303 303 302 302 301 300 299 299 299 300 299 299 298 297 295 292 292 292 292 292 292 292 291 290 290 290 290 290 290 289 289 288 287 287 287 288 288 288 288 288 288 288 289 289 289 288 288 288 288 287 287 286 286 285 285 284 284 283 282 282 281 280 280 279 279 279 278 278 278 278 277 277 277 277 277 277 277
307 306 306 311 313 308 309 312 309 312 314 309 304 305 310 309 301 301 302 301 302 302 300 300 300 300 300 299 299 299 298 298 297 295 293 291 292 292 291 291 291 291 290 290 290 289 289 289 288 288 287 287 286 286 286 286 287 287 287 287 286 287 287 287 288 288 288 288 288 288 287 287 286 285 285 285 284 283 282 282 281 281 280 279 279 278 278 278 278 277 277 277 277 277 276 277 276
305 304 304 308 312 310 309 310 308 308 309 310 310 307 306 303 300 301 302 300 300 299 298 299 299 300 300 299 298 298 297 296 295 294 293 291 291 291 290 290 290 290 290 289 289 289 288 288 287 286 286 285 285 285 285 285 285 286 285 285 284 284 285 286 287 287 288 288 287 287 287 287 286 286 286 285 284 283 282 282 281 281 280 280 279 278 278 278 277 277 277 277 277 276 276 276 276
303 303 306 306 304 304 305 308 308 306 306 307 309 308 302 299 300 300 300 301 299 298 298 297 297 298 298 297 297 296 296 295 294 293 292 290 290 289 289 289 289 289 289 288 288 287 286 286 285 285 284 284 284 283 283 284 284 284 283 282 283 283 285 285 286 286 286 286 286 286 286 286 286 286 285 285 284 283 282 281 281 281 280 280 279 279 278 278 277 277 277 276 276 276 276 276 276
302 304 306 304 301 302 304 306 308 308 308 307 308 309 305 303 303 300 298 300 298 297 297 296 296 296 296 296 295 295 294 293 293 292 290 289 289 288 288 288 288 288 287 286 286 285 284 284 283 283 282 282 282 282 282 283 282 282 281 281 282 283 284 284 284 284 284 284 284 284 285 284 284 284 285 284 284 283 282 281 281 281 280 280 279 279 278 278 277 277 276 276 276 276 276 276 276
301 303 302 301 303 307 307 306 308 308 308 309 310 310 308 306 305 301 298 298 296 295 295 295 295 295 294 294 293 292 292 291 292 291 289 288 288 288 288 287 287 286 285 285 284 284 283 282 282 281 281 280 280 280 281 281 281 280 280 281 281 282 282 282 282 281 281 281 282 282 283 283 283 284 284 284 283 283 282 281 281 280 280 280 279 278 278 277 277 276 276 276 276 276 276 276 276
300 301 301 301 303 307 308 305 307 308 306 308 310 311 310 306 302 300 298 296 296 295 295 295 294 293 293 292 291 291 291 291 291 290 289 288 288 288 287 286 285 285 284 284 283 283 282 281 280 280 280 279 279 279 280 279 279 279 279 280 280 280 280 280 279 278 278 279 280 281 282 282 283 283 283 283 282 282 282 281 280 280 279 279 279 278 278 277 277 276 276 276 276 275 275 276 276
303 304 304 303 302 305 308 305 306 307 306 307 308 310 308 301 297 298 297 296 296 295 295 294 293 292 292 291 290 290 290 290 291 290 289 287 287 287 285 285 284 283 283 282 282 281 280 279 279 279 279 278 278 278 279 278 278 278 279 279 279 279 278 277 276 275 275 276 279 280 281 281 281 281 282 282 281 281 280 280 280 279 279 279 278 278 277 277 276 276 275 275 275 275 275 275 275
307 309 308 309 308 308 307 305 306 305 305 306 306 306 305 298 295 296 296 295 295 295 294 293 292 292 291 290 290 289 289 290 290 289 287 287 286 285 284 284 283 282 282 281 280 278 278 278 278 278 277 277 277 278 277 277 277 278 278 278 278 277 275 274 274 274 275 276 278 279 278 278 278 279 279 280 280 280 280 279 279 279 279 278 278 277 277 276 276 275 275 275 275 275 275 275 275
Wind_Speed
5 5 5 5 8 10 10 2 2 3 2 2 1 1 1 3 4 4 4 3 1 1 1 3 3 2 2 2 5 5 2 2 3 4 2 4 15 16 15 16 15 13 12 11 8 4 1 4 7 6 7 7 8 9 10 11 11 12 12 12 12 12 12 12 12 13 12 13 13 13 14 14 14 14 14 14 14 14 15 15 16 16 16 16 16 16 16 16 16 16 16 16 16 15 15 15 15
6 6 5 6 8 4 3 2 3 3 3 2 2 1 3 3 3 4 7 5 2 3 4 5 4 3 3 4 5 3 1 1 2 4 2 12 17 14 16 16 15 13 13 11 9 5 1 5 7 6 7 7 8 9 10 10 11 11 12 12 12 12 12 12 12 12 12 12 13 13 13 14 14 14 14 14 14 14 14 15 15 15 15 15 15 16 16 16 16 17 17 17 16 16 15 15 14
6 6 8 8 5 2 1 3 2 1 3 2 3 3 3 4 3 4 6 5 5 6 5 4 3 2 3 4 2 1 2 0 4 4 5 17 16 14 17 15 15 14 13 11 9 5 1 7 8 7 8 7 8 8 9 10 10 11 11 12 12 12 12 12 12 12 12 12 12 13 13 13 13 14 14 14 14 14 14 14 15 15 15 15 15 15 16 16 17 17 17 17 17 16 16 15 15
8 9 12 8 3 1 2 2 3 3 3 3 3 4 3 6 5 4 4 6 6 6 4 3 1 1 3 3 2 1 2 2 8 8 7 19 18 19 20 16 17 14 13 11 9 4 3 7 7 7 7 7 8 8 8 9 9 10 11 12 12 12 12 12 12 12 12 12 12 13 13 13 13 14 14 14 13 13 14 14 14 14 15 14 15 15 15 16 17 17 17 18 17 17 16 15 15
10 12 11 4 2 1 2 1 1 4 2 4 2 4 4 7 8 5 5 5 5 5 3 3 1 2 1 3 2 1 3 2 9 12 12 21 19 21 22 20 18 15 14 12 9 5 5 7 7 7 7 7 7 7 7 8 8 9 10 11 12 12 12 12 12 12 12 12 12 13 13 13 13 14 14 14 13 13 13 14 14 14 14 14 15 15 15 16 16 17 17 17 17 17 16 16 15
10 12 8 3 1 1 2 1 1 3 3 4 4 3 5 7 8 8 5 4 3 3 3 3 2 1 1 1 1 3 6 5 9 13 16 22 20 22 23 22 19 16 15 12 10 6 6 8 7 7 7 7 6 6 7 7 7 8 9 10 11 11 11 12 12 12 12 12 13 12 13 13 13 13 13 13 13 13 13 13 14 14 15 15 15 15 15 16 16 17 17 17 17 16 16 16 15
11 10 3 1 1 1 3 2 3 2 2 1 5 5 7 7 8 9 6 3 2 1 1 1 3 4 1 1 2 2 6 8 12 14 17 22 22 22 22 22 19 17 15 13 10 7 7 8 7 7 7 7 6 6 6 6 6 6 7 8 9 10 10 11 12 12 13 13 13 13 13 13 13 13 13 13 12 13 13 13 14 15 15 15 15 15 15 16 16 16 17 16 16 16 16 16 16
10 4 1 3 1 2 3 3 3 3 1 3 3 6 9 9 8 8 7 3 2 2 1 2 3 4 3 2 2 2 5 8 12 16 19 22 25 22 21 22 20 17 15 14 11 8 6 7 6 7 7 6 6 5 5 5 5 5 5 6 7 9 10 10 11 12 13 13 13 13 13 13 13 12 12 12 12 12 12 13 14 15 15 16 16 15 16 16 16 17 17 16 16 16 16 16 16
8 1 1 3 0 3 2 1 1 2 1 3 4 6 8 9 8 8 6 2 3 4 3 5 4 3 4 1 1 2 5 11 15 19 21 22 25 22 21 22 20 19 17 15 12 9 6 5 5 5 6 5 4 4 3 3 4 4 5 5 6 8 9 9 10 12 12 13 13 14 14 13 12 12 12 11 11 11 11 12 14 15 16 16 16 16 16 16 16 16 17 16 16 16 16 16 16
5 1 0 2 1 3 1 1 0 1 2 3 4 7 7 7 7 7 6 3 4 4 4 5 4 2 2 2 2 2 8 17 20 22 22 22 23 22 22 22 21 19 18 15 12 10 8 5 4 4 4 4 3 3 2 1 2 3 4 5 6 7 9 9 10 12 12 13 13 14 15 13 12 11 11 11 10 11 11 12 13 15 16 16 16 16 16 16 16 16 16 16 16 16 16 17 17
3 2 1 2 2 1 2 2 2 2 3 4 4 5 6 6 6 5 5 3 4 5 4 4 2 3 1 2 2 3 16 22 22 25 23 22 22 22 20 20 20 17 16 14 12 10 9 7 6 5 4 3 2 1 1 1 1 3 4 5 7 7 9 9 10 12 12 13 13 14 15 14 13 11 11 10 10 11 11 11 13 15 16 16 15 16 16 16 16 16 16 15 15 16 16 17 18
1 4 3 2 1 2 3 5 4 3 3 4 4 4 4 6 6 4 5 4 4 5 5 5 3 4 2 3 3 7 21 23 21 23 23 22 21 21 20 19 18 16 15 13 12 11 9 9 9 8 7 5 4 2 3 2 3 3 4 6 8 8 9 10 11 12 12 14 14 15 16 15 14 12 11 10 11 12 11 11 13 15 15 15 14 15 16 16 16 16 16 15 15 15 16 17 17
1 1 4 1 3 3 4 5 4 4 2 3 4 4 5 5 5 5 6 4 5 5 5 8 4 4 3 2 0 6 15 21 21 21 22 21 20 20 20 20 19 16 15 14 14 12 12 12 11 11 9 8 7 6 5 5 5 5 5 7 8 8 9 10 11 12 12 13 13 15 17 16 14 11 10 10 11 12 11 12 13 15 15 14 14 15 15 15 15 16 15 14 15 15 16 17 16
0 0 4 1 2 2 4 4 4 4 2 3 2 4 5 3 5 6 6 5 6 5 4 8 6 3 3 1 1 3 10 20 21 21 21 20 19 18 19 20 20 18 16 15 15 14 13 13 13 12 11 10 10 9 8 7 7 7 7 8 10 9 10 10 11 11 12 13 13 15 16 16 14 11 11 11 11 10 10 12 13 14 14 14 14 14 14 14 14 15 15 14 14 15 16 16 15
2 1 4 1 3 2 2 2 5 5 2 1 2 4 5 0 3 5 5 6 6 3 1 5 5 2 3 4 4 6 14 22 22 22 22 19 18 18 17 18 18 18 17 17 17 16 14 13 14 14 13 13 13 12 11 9 8 8 8 9 11 10 10 11 11 11 12 12 13 14 15 15 14 14 13 13 11 9 10 12 13 13 13 14 14 14 13 13 13 14 13 13 13 14 15 14 14
3 3 4 2 3 1 1 2 3 4 2 2 3 5 5 3 1 4 3 4 2 3 1 4 5 3 3 4 5 11 21 24 23 23 21 19 18 18 18 17 16 17 17 18 18 17 16 15 16 16 16 15 15 14 13 11 10 10 9 9 10 11 11 12 11 11 12 12 13 14 14 15 15 15 15 16 13 11 12 12 12 12 13 13 13 13 12 12 12 13 12 12 12 13 13 12 15
3 4 4 2 2 1 1 2 2 2 2 3 4 5 5 3 3 1 2 3 3 2 3 4 4 3 2 4 7 15 25 25 25 24 21 20 19 18 18 18 18 17 18 19 19 19 17 17 17 17 18 18 17 16 15 13 13 13 12 11 11 11 11 11 12 12 12 13 13 14 14 15 16 15 15 16 14 13 13 11 11 11 12 12 12 12 11 11 11 13 11 10 12 12 12 14 18
4 3 3 1 1 1 1 1 1 2 4 4 5 6 6 3 3 0 0 1 2 3 4 4 4 1 4 10 15 22 27 27 26 25 22 21 20 20 20 21 21 20 20 20 20 20 19 19 18 18 19 19 18 17 17 16 16 15 14 13 12 11 11 11 12 13 13 14 14 14 14 15 16 15 15 16 14 13 13 11 10 10 11 11 11 11 10 11 11 11 9 10 12 11 12 16 20
3 2 4 2 3 2 1 2 0 1 4 5 5 6 5 4 4 3 2 4 3 5 6 4 5 1 6 13 20 25 27 27 27 26 24 22 22 22 21 22 23 23 22 22 22 21 21 21 20 20 20 21 20 20 19 19 19 18 15 14 13 12 12 13 14 14 14 15 15 15 15 15 16 16 15 15 14 13 13 12 11 10 10 10 10 11 10 10 11 10 9 11 11 11 13 16 18
2 3 4 3 5 2 2 3 2 1 3 6 5 4 2 3 5 3 4 5 4 7 6 4 7 6 7 10 18 24 25 26 26 25 24 24 24 24 23 23 24 25 23 21 21 21 22 21 20 20 20 21 22 22 21 21 21 19 17 15 14 13 14 15 15 15 15 16 16 16 15 16 17 16 15 15 14 14 14 13 13 12 11 11 12 11 9 8 10 10 11 11 11 11 13 15 17
2 3 4 4 4 3 1 2 2 3 2 5 5 2 1 3 4 4 4 3 5 6 7 8 10 10 10 10 15 21 22 22 23 23 22 22 23 23 24 23 23 22 19 19 20 21 22 21 20 20 20 21 23 23 23 22 21 20 19 17 16 16 16 17 17 16 16 17 17 17 16 16 17 17 16 15 15 14 14 14 14 14 14 14 13 10 7 7 9 11 13 12 11 11 13 14 15
3 1 4 2 2 3 3 2 2 3 3 4 4 3 2 2 2 5 6 5 7 5 6 8 8 7 10 12 14 16 17 18 20 21 21 21 22 23 23 22 21 19 18 20 22 21 21 21 20 19 20 22 23 23 23 23 22 22 21 19 18 18 18 19 18 18 18 18 18 18 17 17 18 17 17 16 16 15 14 15 15 15 15 15 13 10 7 7 9 12 13 13 11 11 13 13 13
3 1 2 3 2 3 3 2 1 3 4 3 3 2 1 2 4 5 7 10 10 6 6 7 7 8 13 16 15 12 13 15 18 22 23 22 22 23 23 22 21 20 19 19 19 19 19 20 19 19 20 22 23 23 23 24 24 24 23 21 21 21 20 20 20 20 20 19 19 19 18 19 19 18 18 17 17 16 15 15 15 16 16 16 13 9 8 8 10 11 12 12 12 12 13 14 14
5 2 1 2 3 4 3 3 0 2 1 2 2 2 2 3 5 3 7 12 10 8 7 7 9 10 12 13 13 13 15 17 21 25 26 25 24 24 22 22 21 20 19 19 18 17 18 19 18 19 20 22 22 23 24 25 25 25 24 23 23 23 22 22 22 21 21 21 21 20 20 20 20 20 19 19 18 18 16 16 16 16 16 16 13 10 10 10 10 11 13 13 13 14 15 16 15
3 3 3 2 3 3 4 3 2 1 2 3 1 3 6 7 4 5 11 13 9 9 7 7 8 7 7 8 10 12 13 17 20 22 24 24 23 22 21 21 20 19 20 19 18 18 18 18 18 20 21 22 23 23 24 26 26 26 25 25 25 24 24 24 23 23 23 22 22 21 21 22 22 21 21 20 20 19 17 17 16 16 16 16 14 12 12 12 11 12 14 15 15 16 17 17 18
1 3 3 3 3 3 5 2 4 4 3 3 3 6 8 7 4 7 13 13 8 7 7 6 7 6 6 6 7 9 10 14 17 19 21 23 22 21 21 20 19 19 19 18 17 17 17 17 19 21 22 23 23 24 25 26 26 26 26 26 25 25 25 24 24 24 24 24 23 22 23 23 23 23 22 21 21 21 19 18 17 17 17 16 15 14 13 12 12 13 15 16 17 18 19 19 19
1 3 2 4 5 4 5 4 5 5 4 4 6 7 8 5 2 5 8 7 3 5 5 6 7 7 7 5 6 7 9 12 17 18 17 18 19 21 20 18 18 18 18 17 17 17 16 17 19 21 22 22 23 24 25 26 27 27 27 26 26 25 25 25 25 26 25 25 25 24 24 24 24 24 23 23 22 22 20 19 18 18 18 17 15 15 14 12 12 15 17 18 19 20 20 19 17
1 4 2 0 5 4 5 6 6 4 3 5 6 7 5 2 2 7 7 3 4 8 5 5 7 6 6 6 6 6 8 11 14 15 14 14 17 18 17 16 16 16 15 16 15 15 16 17 18 19 20 21 22 24 25 26 27 28 27 27 26 26 26 26 26 27 27 27 26 25 25 25 25 25 24 24 23 23 22 21 20 19 19 18 16 16 15 13 14 16 19 20 21 21 19 17 16
2 5 2 3 1 3 6 5 4 4 2 5 3 4 3 3 7 11 7 4 5 7 6 6 6 6 5 6 5 5 9 11 11 12 12 13 13 14 14 13 13 13 13 13 12 13 14 15 17 18 19 20 21 23 25 26 27 27 27 27 27 26 26 26 27 28 28 28 27 26 26 26 26 26 26 25 25 24 23 22 22 21 20 19 17 16 16 15 15 18 20 20 20 18 17 18 18
1 2 2 1 3 5 7 5 2 3 2 3 1 4 5 6 12 11 5 6 6 6 7 6 6 5 5 5 5 4 7 9 10 11 11 10 9 10 9 7 6 7 7 7 8 9 9 11 12 14 16 18 20 21 22 24 26 26 26 27 27 27 27 27 28 29 29 28 27 27 27 27 27 27 27 27 26 25 25 24 23 23 21 19 18 17 17 17 16 18 19 19 19 18 19 20 20
1 0 1 1 1 5 5 3 3 2 2 1 4 1 7 7 9 10 5 7 8 7 7 6 5 5 5 5 5 5 5 9 11 11 10 9 9 7 5 2 1 2 3 4 5 6 7 8 9 10 11 14 16 18 20 21 23 24 25 26 27 27 27 28 29 29 29 28 28 28 28 28 28 28 28 28 27 26 26 25 25 24 22 19 19 18 18 18 18 19 19 19 20 20 21 22 21
1 0 3 2 1 4 5 2 5 4 3 1 5 1 7 8 9 6 7 8 8 7 6 6 5 5 6 5 5 5 5 9 12 11 11 10 8 5 3 2 2 2 3 5 7 8 9 10 10 10 10 11 13 15 17 19 21 22 23 25 26 26 26 27 28 28 29 28 28 28 28 28 29 29 29 28 28 27 27 27 26 25 22 21 20 19 19 20 21 21 21 20 20 21 22 22 22
2 1 2 4 3 3 4 4 2 5 1 1 1 2 5 8 5 1 5 8 8 7 6 5 4 5 7 5 5 5 4 6 9 11 11 8 6 6 6 6 7 8 10 11 12 13 14 14 13 13 12 12 13 14 16 18 19 21 21 23 24 25 26 26 27 27 28 28 28 29 29 29 29 29 29 29 29 29 28 28 27 26 24 22 21 21 21 22 22 23 23 22 21 21 22 23 23
4 2 1 4 3 3 3 4 3 1 1 2 3 3 7 12 7 1 5 7 8 7 6 3 1 5 6 6 5 4 4 4 3 5 10 12 11 9 9 9 11 13 14 14 15 16 16 16 16 16 16 15 16 16 16 17 18 19 20 21 22 24 25 26 26 26 27 28 29 30 30 29 30 30 30 30 30 30 29 29 29 27 25 24 23 23 23 23 23 24 25 25 22 22 23 24 24
3 3 2 4 3 3 5 4 3 1 0 3 3 4 9 15 12 4 6 6 8 8 6 4 5 7 6 6 6 5 6 5 7 17 20 16 13 10 10 11 13 14 15 15 16 16 15 16 16 16 16 17 17 17 17 17 18 19 20 20 20 21 23 24 26 27 28 29 29 30 31 30 31 31 31 31 31 31 31 31 30 29 27 25 24 24 25 25 25 25 26 26 24 24 24 25 25
6 5 4 4 4 5 6 5 3 2 1 5 6 6 9 15 14 5 6 5 6 7 6 6 6 7 6 6 6 6 8 6 11 20 19 15 13 12 11 12 14 15 15 15 16 15 15 16 15 15 16 18 18 17 18 18 19 19 20 20 21 21 22 23 25 26 27 28 30 30 31 31 31 32 32 32 32 32 32 32 31 30 28 27 26 26 27 27 26 27 27 26 26 25 25 25 25
4 2 2 5 5 6 7 5 4 2 1 6 8 6 8 15 14 6 6 3 5 8 8 7 6 6 6 7 7 8 9 7 13 18 16 15 14 14 14 13 15 16 16 18 19 16 15 16 14 14 16 18 18 17 17 18 19 20 21 21 22 22 22 23 24 25 25 26 27 29 30 31 31 31 32 32 32 33 33 33 32 31 30 29 28 29 28 28 27 27 27 26 25 25 25 24 22
1 1 2 5 4 6 6 2 4 1 1 5 6 5 11 15 13 9 6 2 7 9 9 8 8 7 6 8 8 8 7 6 10 14 16 17 16 17 17 15 15 17 19 20 21 19 17 16 15 15 17 19 19 17 16 16 17 18 19 21 22 23 23 24 25 25 25 25 26 27 28 29 30 30 31 32 33 33 33 33 33 33 32 30 30 30 29 28 28 28 27 27 26 25 25 25 22
1 1 0 4 4 4 5 2 1 1 1 5 6 6 11 15 10 8 4 5 6 6 9 8 8 8 7 8 8 8 7 6 7 9 13 17 18 18 17 16 17 19 20 20 21 20 18 17 17 17 19 21 20 17 16 16 16 16 16 17 19 21 22 23 24 25 26 27 28 28 29 29 29 30 31 32 33 34 34 34 34 34 33 31 31 31 30 29 29 29 29 28 27 26 26 26 23
1 2 1 4 4 2 3 3 4 3 2 5 6 6 9 9 4 5 6 5 6 5 8 7 7 9 9 9 8 7 8 7 7 7 10 16 17 17 17 18 19 20 20 20 21 20 18 18 18 17 20 21 18 16 16 16 16 17 17 16 17 18 19 21 21 23 24 25 26 27 28 29 30 32 33 34 34 35 35 35 35 34 34 33 32 32 31 31 31 30 30 29 27 25 25 25 23
4 4 4 5 4 2 4 4 5 5 4 3 5 6 5 4 4 3 5 5 7 7 9 10 9 9 9 9 8 7 8 7 7 7 8 12 14 14 16 18 19 21 20 20 22 20 19 19 17 16 18 18 14 14 16 16 16 17 17 18 18 18 20 21 22 22 23 23 24 25 26 28 30 32 33 35 36 36 36 36 36 35 35 34 33 33 33 32 31 31 31 30 28 26 25 24 23
5 3 5 5 3 2 4 5 6 5 5 3 5 5 5 5 3 3 1 4 6 5 9 11 8 8 8 8 8 7 7 7 7 7 8 10 10 11 16 19 20 22 20 20 21 20 20 19 16 15 17 15 14 16 18 18 17 17 17 18 19 19 21 22 23 24 23 23 24 24 24 25 28 31 32 34 36 37 37 37 36 36 35 35 34 34 34 33 32 32 32 31 30 29 27 24 24
3 3 5 5 2 3 4 5 4 2 4 4 2 1 4 6 4 4 4 6 6 6 9 9 7 7 8 7 7 7 7 7 7 7 8 8 9 11 16 18 20 20 18 20 21 20 20 18 14 16 18 16 16 18 18 18 19 18 16 17 17 18 20 22 24 25 24 25 25 25 25 24 25 28 30 32 34 36 37 37 37 36 36 35 34 34 34 34 34 33 32 31 31 30 28 26 26
3 4 4 1 3 5 2 4 1 3 3 5 1 4 3 5 5 4 6 8 7 8 8 7 6 7 7 7 7 7 7 6 6 6 6 8 9 12 16 17 18 19 19 21 21 20 19 16 13 16 18 16 17 18 17 18 19 17 16 16 16 18 20 23 24 24 25 26 26 27 28 27 25 25 26 29 31 34 36 37 37 36 36 36 35 35 35 35 34 33 32 32 32 31 30 29 29
5 5 3 3 2 2 1 3 2 2 2 5 3 4 3 5 5 1 5 7 6 6 7 6 7 7 7 7 6 6 6 6 6 6 7 10 11 13 16 17 18 20 21 21 21 20 19 15 14 16 19 19 19 19 19 20 20 18 17 17 17 19 21 23 24 24 24 26 27 28 28 28 28 25 24 25 27 31 34 36 36 36 37 36 36 36 36 35 34 34 33 32 32 33 32 31 31
4 3 1 3 0 1 2 3 2 2 2 4 6 3 3 4 4 1 4 4 5 5 5 5 6 6 6 6 6 6 6 6 6 8 10 14 12 13 16 19 20 21 22 21 22 22 20 18 16 19 23 24 23 22 22 23 22 20 20 20 20 22 23 23 23 23 24 25 27 28 28 29 29 27 25 24 24 26 30 34 36 37 37 37 36 36 36 36 35 35 35 34 33 33 32 32 32
1 2 3 5 3 2 3 2 3 4 2 5 6 4 5 2 4 3 2 2 6 6 4 4 5 6 5 5 6 6 6 6 6 7 11 13 11 14 18 21 21 23 22 22 23 23 23 22 21 24 27 28 27 26 26 26 25 23 24 24 24 25 25 24 24 25 26 27 28 29 30 31 30 28 27 25 23 23 27 31 34 37 37 37 37 36 37 37 36 36 35 34 34 33 33 33 33
3 4 3 4 4 3 4 4 4 3 4 6 4 1 5 1 4 2 1 1 6 7 6 6 6 5 5 5 5 5 6 6 5 5 8 11 11 15 20 21 21 22 20 21 23 24 25 26 27 29 30 30 30 31 31 30 29 28 29 28 28 29 28 26 26 27 28 29 29 31 31 31 31 30 28 26 24 23 24 27 32 35 37 37 38 38 38 37 36 36 35 34 34 34 34 33 33
4 3 4 4 4 4 3 3 1 1 5 5 0 2 2 4 4 2 3 4 6 6 7 7 7 6 5 5 5 5 5 5 6 6 7 10 11 13 16 18 19 19 19 20 23 25 27 28 29 29 30 31 33 35 35 34 33 32 32 32 32 32 32 30 30 31 31 31 31 32 32 33 33 32 30 29 26 23 23 25 28 32 35 37 39 39 39 38 37 36 35 35 34 34 34 34 35
2 1 3 2 1 2 3 4 2 2 4 4 1 2 2 3 1 2 5 6 6 6 6 7 7 7 6 6 6 6 5 5 6 6 6 8 9 12 14 16 18 18 19 21 24 26 27 28 28 28 29 31 33 35 36 36 36 35 34 34 35 36 36 35 35 35 35 34 33 34 34 34 34 34 33 32 29 25 23 23 25 28 31 35 38 39 39 38 37 37 36 36 36 35 34 34 36
2 3 4 3 3 2 3 3 2 3 4 4 2 0 3 2 1 5 5 5 5 6 6 6 6 6 6 6 6 6 6 6 6 6 6 8 10 13 15 17 19 20 22 24 27 28 29 28 28 30 31 32 34 35 36 37 36 34 33 35 36 36 37 37 38 39 38 37 36 36 36 35 35 36 36 34 31 28 26 24 23 24 27 31 35 38 38 38 38 37 37 37 37 36 34 35 36
2 1 3 1 3 4 2 4 4 3 3 4 3 1 1 0 1 1 3 6 6 6 7 8 7 6 6 6 6 6 6 6 5 5 5 9 13 16 18 20 22 24 26 28 29 30 30 30 31 33 34 34 36 36 37 36 35 33 35 36 37 37 37 38 38 38 38 37 37 38 38 38 38 39 39 37 34 32 29 25 23 23 23 27 32 35 37 38 37 37 38 37 37 36 34 35 36
1 1 1 4 4 4 1 4 3 2 2 3 2 1 1 2 0 2 6 7 6 7 8 7 6 6 6 5 5 6 5 5 4 5 6 9 14 18 21 23 24 25 26 27 28 28 30 31 33 36 37 38 38 38 36 35 34 35 36 37 37 36 36 36 37 37 37 38 38 38 39 40 41 41 41 40 37 35 31 27 25 24 24 24 28 32 35 37 37 38 38 38 38 36 35 36 36
2 2 4 3 1 3 2 1 3 4 2 4 2 3 2 2 2 1 4 6 6 6 6 5 5 5 6 6 5 5 6 4 3 4 6 10 15 19 22 23 23 24 24 25 26 28 30 33 35 37 38 38 38 37 36 34 33 35 37 37 35 34 33 34 35 35 36 37 37 37 38 39 40 42 42 41 39 36 32 29 28 28 28 26 27 30 33 35 36 38 39 39 38 36 34 36 36
2 3 3 1 1 1 1 1 1 2 2 4 4 3 3 3 4 4 3 4 4 3 3 4 5 6 5 5 5 6 6 3 1 1 5 11 17 20 21 22 23 24 26 28 31 33 35 36 37 36 35 35 36 36 35 33 32 34 35 34 33 33 34 34 34 35 37 37 38 38 38 39 40 41 41 40 39 37 35 34 33 32 31 28 28 29 31 32 35 37 38 37 37 35 34 35 35
2 2 3 1 2 3 1 2 2 1 2 4 4 4 2 3 2 6 5 3 3 3 4 5 5 6 5 5 5 5 5 2 2 3 7 13 18 20 22 24 25 28 30 33 35 36 37 38 37 35 34 35 36 35 33 33 34 34 33 33 34 34 33 34 36 39 40 39 39 38 38 38 39 39 39 39 40 39 37 36 34 31 28 27 28 28 29 31 34 36 36 35 35 34 34 35 35
1 2 1 2 1 1 1 2 2 3 2 3 3 4 3 3 2 7 6 3 4 4 5 5 5 5 5 6 7 7 6 5 6 7 9 14 18 21 24 26 27 29 31 33 34 35 36 37 34 33 34 36 36 33 32 35 36 34 34 35 34 33 34 38 42 43 41 39 36 34 34 36 37 37 38 38 37 36 34 32 30 29 28 28 28 28 28 30 33 34 34 34 35 34 35 35 35
4 3 3 3 2 1 1 4 2 2 2 4 2 4 3 2 3 6 6 4 4 5 5 4 4 6 7 8 8 8 7 7 7 8 11 15 19 21 22 24 26 28 29 30 32 34 35 34 32 32 34 35 33 32 35 37 36 34 35 35 35 37 40 44 45 43 38 33 32 34 35 36 37 37 38 37 36 34 33 32 31 30 30 29 28 28 29 31 32 33 33 33 34 34 35 35 34
Wind_Direction
322 311 316 327 317 321 320 22 75 320 105 85 173 165 258 159 135 113 127 148 85 278 149 93 93 109 113 128 158 148 115 175 169 143 206 169 152 161 160 154 147 142 145 160 182 205 255 87 99 88 78 71 64 59 55 51 47 44 39 36 34 32 29 28 25 21 19 17 16 15 16 15 15 14 13 14 13 13 12 12 13 12 13 13 11 10 8 7 6 5 6 5 3 2 1 1 1
327 309 316 320 305 312 300 94 93 313 68 35 321 170 190 115 86 129 163 176 156 171 137 110 111 114 83 73 123 121 23 327 127 132 150 148 151 163 160 153 146 143 153 175 196 207 226 111 114 99 89 79 71 65 59 55 50 46 42 38 34 32 29 27 24 21 18 15 13 12 12 11 11 11 10 11 11 11 11 11 12 12 12 12 12 11 9 8 7 6 6 6 6 5 4 3 2
326 315 321 333 310 189 285 41 104 257 88 169 286 265 162 102 130 159 161 157 142 137 111 109 104 110 79 57 117 141 213 275 126 110 121 153 158 167 161 150 147 149 159 180 200 205 148 119 121 106 97 87 78 71 64 58 53 49 45 41 37 33 29 27 23 20 17 14 12 10 9 7 7 8 8 8 8 7 8 9 10 10 10 10 10 9 9 8 7 6 6 7 7 6 7 6 4
317 319 314 333 10 60 37 57 152 128 113 176 239 257 155 131 159 147 139 141 143 133 118 129 94 200 121 138 178 86 178 205 161 141 148 175 175 168 163 154 155 158 165 182 194 183 111 117 116 111 104 95 87 76 71 63 58 53 49 44 40 36 32 28 22 18 15 12 10 8 7 4 3 5 4 4 5 4 4 6 8 7 7 7 7 7 6 6 5 5 5 5 6 7 7 6 6
319 330 307 301 61 338 89 101 108 99 164 183 189 235 160 148 152 142 146 143 147 138 144 140 131 259 130 176 191 149 181 135 164 159 159 182 179 164 164 159 159 161 168 185 185 155 106 110 103 110 110 105 98 86 81 70 66 57 53 47 41 38 34 30 23 18 13 9 6 4 3 1 360 1 -0 -0 1 1 0 2 5 5 5 5 4 4 3 3 3 3 3 3 5 5 5 5 5
331 339 308 230 119 180 107 30 62 115 210 185 157 194 155 148 148 141 131 115 106 110 119 122 150 167 98 216 68 159 179 132 156 170 162 174 178 166 165 158 160 167 170 185 180 151 116 112 104 107 111 114 108 99 90 78 72 60 55 49 43 39 34 30 24 18 13 8 3 1 359 357 356 355 355 355 358 358 356 357 1 2 3 3 1 1 1 0 0 1 1 1 2 2 2 2 1
334 332 321 126 350 35 103 137 167 176 264 167 145 160 149 146 145 133 126 109 74 67 95 177 144 110 206 187 55 151 168 154 156 171 167 168 174 165 161 157 164 173 175 189 181 159 127 113 109 105 110 117 115 109 94 85 75 65 57 47 43 37 34 29 24 20 15 11 5 0 356 354 353 351 351 351 354 355 354 355 358 359 -0 1 -0 359 357 358 358 358 359 359 358 359 -0 360 359
334 301 92 80 357 2 105 137 156 175 335 17 102 143 145 147 141 134 156 169 159 193 195 224 122 97 256 162 131 216 149 168 167 168 165 163 169 164 160 159 167 175 180 193 183 172 140 116 116 111 119 120 118 114 95 86 71 66 56 43 40 32 31 26 22 20 17 14 9 3 357 353 351 349 349 349 351 352 351 353 354 355 356 357 357 357 355 355 355 355 356 356 355 356 356 356 356
344 243 0 69 109 341 55 81 80 144 82 32 77 120 139 146 141 141 166 179 148 160 176 187 137 126 254 109 164 261 132 160 162 160 163 164 168 166 162 164 173 176 182 196 191 185 166 141 131 125 136 130 127 124 112 94 64 57 47 37 32 24 26 24 19 20 18 16 13 9 3 356 353 352 350 349 349 349 349 349 351 352 352 352 353 353 352 352 352 352 354 353 352 353 352 353 353
354 206 114 86 48 343 0 6 47 105 118 122 111 128 144 148 141 149 154 165 160 146 182 165 133 184 239 161 194 271 158 156 152 156 165 169 169 168 165 170 182 181 186 200 202 198 191 189 166 153 157 149 153 141 149 136 56 40 32 24 20 15 20 21 16 18 18 17 16 13 8 4 1 357 354 350 346 346 345 344 346 347 346 347 347 349 350 349 349 350 351 351 350 350 350 350 351
3 333 78 85 35 335 223 172 139 140 140 122 115 139 149 140 130 152 145 150 154 123 152 134 137 224 221 212 243 180 163 160 159 161 168 172 170 170 167 173 187 192 195 202 209 212 209 215 218 213 200 187 194 171 196 233 348 10 8 4 5 3 12 16 15 16 17 16 17 14 12 12 8 2 355 348 343 342 339 338 342 343 342 343 343 346 347 346 347 347 348 348 348 349 349 348 349
30 331 59 91 175 196 184 151 158 147 127 126 151 175 151 129 127 164 155 147 147 128 171 171 168 177 157 261 268 149 159 166 172 168 172 177 174 172 170 173 188 200 202 203 210 220 223 224 232 237 238 235 241 256 267 287 296 330 342 346 352 353 3 8 11 14 12 14 16 15 15 16 11 1 353 347 341 338 334 332 336 338 339 340 340 342 343 344 343 344 345 345 347 348 349 349 349
91 339 75 116 205 166 139 139 167 128 126 199 176 180 143 128 160 181 162 167 170 154 210 200 160 137 174 265 209 151 165 174 176 172 176 179 179 175 173 176 186 198 202 204 208 217 225 228 233 241 249 251 258 267 274 286 288 303 314 328 337 341 353 357 5 9 8 10 10 12 16 17 15 4 354 346 338 335 332 328 330 334 336 336 335 336 337 339 339 340 341 341 343 344 347 349 350
116 288 101 202 279 115 122 127 161 132 223 245 134 160 135 129 199 172 151 189 205 185 225 197 147 117 203 240 158 196 188 180 175 176 179 181 182 177 179 185 191 198 203 208 210 215 224 233 237 243 252 252 260 268 273 278 284 296 303 317 325 329 340 346 355 1 1 5 3 6 12 16 17 10 357 346 338 334 328 323 327 331 332 331 330 330 329 331 334 335 336 335 337 338 342 345 348
136 137 96 117 320 33 97 119 157 138 186 199 118 154 123 336 206 141 149 182 224 238 199 176 150 127 196 198 219 214 189 180 176 179 179 180 183 180 185 191 200 205 208 213 215 219 222 232 239 246 253 253 260 265 269 270 272 285 297 311 316 318 329 336 344 351 352 355 355 358 5 8 10 8 1 357 354 338 327 325 327 328 328 328 326 325 324 323 327 331 329 330 331 331 336 339 343
121 101 73 60 324 44 44 2 91 110 191 180 153 136 112 295 300 120 193 156 197 267 161 183 186 179 184 188 220 197 180 177 176 178 177 179 184 185 190 195 205 209 213 218 222 227 227 229 236 244 251 255 259 262 265 265 266 273 284 297 304 308 320 329 333 338 341 343 344 348 354 357 0 2 0 3 3 346 337 334 327 325 325 325 325 323 321 318 322 327 323 326 327 326 330 328 332
65 73 69 41 2 75 3 355 47 127 192 192 167 144 138 260 317 97 239 129 143 233 216 227 214 205 184 166 178 170 168 171 173 173 174 177 184 188 195 200 205 211 217 223 229 234 237 235 236 240 246 252 255 258 260 260 264 271 279 288 293 300 311 319 320 323 328 331 334 338 342 346 352 353 356 1 0 349 343 337 324 321 323 323 325 324 320 316 319 323 319 322 323 323 322 316 324
53 68 86 76 98 142 244 193 228 141 157 195 190 181 162 199 262 189 100 214 207 230 241 251 250 244 129 142 149 154 160 166 169 171 173 178 185 189 197 203 207 214 218 226 233 237 241 243 242 237 239 244 247 251 255 257 262 269 278 285 288 294 301 301 304 309 315 321 323 328 331 336 343 343 350 358 356 348 341 335 325 320 320 319 321 322 319 314 315 319 316 318 321 319 311 310 320
79 94 88 185 191 165 231 155 222 63 167 191 191 197 186 193 196 155 212 250 229 233 262 247 238 241 120 142 147 152 159 164 170 174 178 182 187 192 198 203 209 217 221 228 235 240 243 244 245 240 236 237 241 246 251 255 259 265 272 279 283 286 289 289 294 299 305 311 313 319 321 326 334 333 341 350 350 344 339 335 329 322 315 311 311 310 307 307 310 309 308 313 314 308 303 308 316
93 96 88 225 189 135 11 66 53 351 160 161 179 196 191 201 169 146 216 244 226 218 243 222 225 216 162 163 156 157 163 167 175 179 184 190 194 198 201 206 212 220 228 235 241 243 243 243 243 241 238 234 237 243 247 252 256 261 266 272 275 274 278 282 287 290 295 301 303 309 312 317 324 325 332 339 342 340 338 335 330 325 316 309 308 305 298 301 305 297 299 307 305 302 302 308 312
43 97 146 225 153 120 322 68 34 332 56 131 155 131 317 231 166 167 190 242 262 229 227 210 219 214 181 177 168 167 168 172 180 185 190 196 200 205 209 215 221 230 238 241 242 241 241 242 242 241 238 234 235 240 245 252 256 259 262 267 269 266 271 276 279 281 287 294 295 301 303 308 314 316 323 328 333 335 333 332 329 324 318 313 312 307 296 294 299 293 295 300 299 299 300 304 307
54 76 152 230 100 131 216 128 36 333 28 87 126 136 262 265 166 195 183 213 245 220 210 196 199 200 173 175 175 172 175 179 185 191 197 202 206 210 216 223 229 237 241 240 240 240 240 240 241 240 237 234 236 241 247 253 255 258 261 265 265 264 269 273 273 274 282 287 288 294 295 300 306 309 313 317 324 328 328 329 326 322 319 318 316 309 299 288 291 290 291 296 296 294 293 298 302
96 276 95 8 68 138 187 144 11 7 53 81 146 194 290 327 281 230 201 223 232 206 188 170 158 147 152 168 173 175 184 187 191 197 201 205 209 213 218 223 226 231 236 241 244 243 240 238 239 239 237 236 239 245 249 252 254 258 262 264 264 265 269 269 269 271 277 282 283 287 289 293 299 302 305 308 315 320 322 324 322 321 321 321 318 305 294 285 286 288 289 290 290 287 287 288 291
96 195 180 39 98 123 145 149 220 24 63 187 157 352 300 247 270 274 232 237 238 227 212 174 160 145 141 157 171 183 191 192 198 202 205 209 215 219 223 226 228 232 236 243 246 242 238 236 238 239 240 241 243 248 251 253 256 259 263 263 264 267 268 268 269 271 274 277 279 283 284 288 293 295 298 302 308 312 316 319 319 319 319 321 317 299 287 283 285 289 287 284 283 282 282 282 281
76 167 185 121 112 142 143 144 190 250 259 222 121 296 248 226 247 284 258 251 243 231 222 173 155 149 143 154 172 185 193 198 201 203 207 214 221 225 228 231 233 235 238 243 244 242 239 236 239 242 244 246 249 252 252 256 258 260 263 264 267 269 269 271 272 272 274 275 277 280 280 285 289 290 293 296 301 305 308 312 314 315 315 317 313 301 292 283 281 287 286 280 277 278 279 278 279
224 147 164 156 160 168 149 174 212 212 242 189 186 248 250 241 248 270 260 259 250 219 214 183 153 163 172 170 179 178 187 199 202 204 210 218 222 225 227 231 233 235 239 244 245 246 244 241 244 247 250 252 253 254 255 259 260 262 265 267 271 272 272 273 272 272 275 275 277 279 280 284 286 287 289 291 295 298 301 305 307 311 312 314 311 304 299 285 277 282 282 277 276 277 278 280 284
209 121 120 146 166 181 165 208 225 211 233 197 206 244 249 243 235 264 267 268 228 159 191 188 159 181 188 180 193 188 191 199 202 204 208 212 213 218 223 226 230 236 241 246 251 253 254 251 252 255 256 256 255 256 259 262 264 267 270 271 272 273 274 274 273 274 275 275 277 279 280 282 283 283 285 287 290 294 297 300 302 306 309 311 308 303 302 289 275 276 277 276 277 278 282 286 289
121 117 37 124 177 205 188 215 235 204 236 217 220 262 252 172 199 239 248 251 121 125 159 178 169 191 185 180 195 201 208 209 205 200 198 201 204 212 219 224 232 240 245 253 261 262 261 260 261 263 262 260 258 260 263 265 268 270 272 273 274 275 275 274 274 275 275 276 277 278 279 281 281 281 282 284 287 291 294 296 298 302 305 307 303 300 299 291 276 272 273 274 277 280 285 288 289
93 118 58 301 221 259 219 208 218 171 218 230 212 318 322 168 227 246 236 200 134 133 174 194 198 203 185 192 195 198 210 209 206 203 205 209 211 217 224 233 242 249 256 266 271 268 267 268 269 270 269 267 264 265 267 269 270 271 272 274 276 277 275 274 274 275 276 277 277 278 279 280 280 280 280 282 285 288 290 292 294 297 300 302 299 294 291 287 280 275 275 276 277 280 282 282 282
36 125 116 15 10 298 233 184 171 164 227 267 84 345 299 233 236 253 236 172 144 156 202 210 212 208 192 194 188 197 198 189 195 207 214 215 215 221 229 240 251 264 275 278 277 282 288 288 286 283 280 276 274 272 271 272 272 272 273 276 278 277 276 276 276 277 277 277 278 278 279 279 280 280 280 281 283 285 286 288 290 292 296 297 293 289 284 283 280 277 277 276 277 278 275 275 277
77 292 65 99 93 285 259 173 159 177 269 352 78 269 273 273 259 254 212 168 162 185 217 225 221 206 186 179 177 193 189 184 195 205 208 210 213 217 226 238 269 295 312 328 331 341 341 338 330 319 310 297 290 285 282 281 278 276 277 279 280 279 278 278 278 278 278 278 279 279 279 280 279 279 279 280 281 281 282 283 285 289 292 291 289 286 281 278 275 274 274 273 275 275 273 274 276
79 48 317 323 212 269 286 240 162 178 257 65 91 235 271 290 284 252 183 170 176 193 218 233 227 187 170 173 171 185 203 199 196 198 204 205 204 194 166 131 91 66 46 38 31 27 18 11 3 352 342 326 315 307 301 296 291 287 285 285 285 283 280 280 280 280 280 280 279 279 280 280 279 278 278 278 279 279 279 280 283 287 288 287 286 284 277 273 272 273 271 269 271 273 274 276 276
339 116 257 278 292 300 300 298 200 167 207 305 173 239 276 283 283 167 175 181 175 193 221 242 236 163 154 168 174 188 207 204 203 207 203 181 152 129 117 108 98 83 70 64 54 44 33 24 15 7 358 344 334 323 316 309 303 298 294 293 291 288 285 284 284 283 282 281 281 281 281 280 279 278 278 277 277 277 277 279 282 284 285 285 284 280 275 271 270 270 270 268 267 268 272 274 276
317 19 286 265 273 299 299 297 292 111 103 265 231 207 253 271 273 218 236 209 175 197 213 218 170 120 131 154 159 161 145 150 173 143 122 117 116 115 110 101 90 73 67 65 52 40 32 22 15 9 2 354 346 336 328 319 311 304 299 297 294 289 287 287 288 286 285 284 283 283 283 281 280 278 278 277 276 276 277 278 280 282 282 282 280 278 276 273 269 267 269 270 267 264 267 271 274
240 261 275 295 303 285 272 268 272 73 93 261 260 249 258 273 280 275 258 225 186 200 188 154 127 117 123 124 120 114 111 107 95 97 100 110 113 104 95 87 75 66 69 67 49 39 32 23 17 13 6 359 350 342 337 329 321 313 304 301 296 292 292 292 292 290 289 288 286 286 285 283 281 279 278 276 275 275 275 276 278 279 280 279 278 276 275 273 270 267 267 269 268 266 266 267 271
191 213 198 246 277 281 266 254 240 147 173 261 249 251 267 280 289 296 287 271 186 181 147 131 131 125 120 106 110 110 96 90 102 104 105 106 95 81 77 74 72 74 75 62 46 39 32 24 20 18 12 5 357 348 341 336 332 326 319 311 305 302 302 301 299 296 294 292 291 290 287 285 283 280 278 276 275 274 275 276 277 278 278 278 275 274 274 273 272 270 268 268 269 269 266 266 269
167 200 214 246 257 275 270 259 257 171 131 260 246 255 277 280 290 301 289 306 125 141 132 133 134 124 121 117 115 101 93 104 108 102 94 86 78 73 74 79 85 83 69 51 43 37 25 19 18 14 8 3 2 357 349 343 340 337 332 324 317 314 313 312 309 305 302 300 299 296 291 288 284 281 278 276 275 274 275 275 276 277 277 276 274 274 276 275 274 271 269 268 267 267 267 266 267
88 206 261 283 259 259 274 245 245 272 41 270 276 305 288 282 295 304 280 167 131 143 139 139 136 128 125 117 106 95 96 98 89 82 77 74 73 73 76 86 89 76 59 48 41 33 20 15 13 7 0 357 358 359 357 352 346 342 337 331 325 320 320 320 317 313 310 307 306 303 298 292 286 282 280 278 275 274 274 274 274 275 275 275 274 274 274 273 271 269 267 266 264 263 264 265 265
0 260 276 290 266 270 309 356 258 312 0 278 309 327 292 290 303 318 321 129 138 147 138 139 137 127 112 103 98 94 92 76 71 72 65 63 67 70 76 86 81 65 56 47 37 31 25 18 10 3 359 354 350 354 359 354 347 344 339 334 330 323 321 322 319 315 313 309 308 307 303 297 291 286 283 280 276 274 273 273 274 275 274 274 273 272 271 268 267 265 263 262 263 264 265 266 263
275 241 199 267 284 318 296 300 305 289 252 273 309 312 287 298 337 3 6 84 102 95 108 106 105 106 101 103 103 96 92 79 70 63 54 56 60 64 76 87 75 59 53 44 34 31 25 16 6 2 360 352 348 355 360 353 346 343 338 333 330 325 324 325 324 323 322 319 315 313 309 304 298 292 289 284 279 276 274 273 274 274 274 273 271 269 267 266 264 263 262 259 260 263 266 266 262
285 221 209 249 284 293 240 274 319 316 313 315 342 329 296 330 65 64 358 43 78 80 90 79 75 92 96 95 89 82 86 81 68 58 48 51 55 65 82 86 69 54 49 41 33 28 18 7 358 358 359 354 353 356 353 349 345 341 336 331 327 324 323 324 322 324 328 326 322 320 317 312 305 297 291 286 281 277 274 273 273 272 272 272 270 267 266 265 263 262 262 258 255 256 260 266 264
309 241 207 211 209 288 293 331 354 1 337 333 32 4 295 327 50 146 345 62 82 71 83 84 80 85 84 81 76 71 72 68 63 57 48 47 53 69 85 81 62 52 48 36 28 20 10 1 356 359 0 357 354 350 345 344 342 340 335 328 323 319 316 318 318 317 319 321 319 318 319 318 313 304 296 288 282 277 274 272 271 270 270 270 268 267 265 263 262 261 260 257 255 254 255 261 262
307 236 191 182 148 328 333 14 22 7 287 273 77 109 259 316 324 214 175 115 97 68 75 86 87 83 81 81 78 74 66 59 53 40 37 41 44 69 85 76 58 51 45 31 22 14 7 5 4 4 0 355 351 347 344 342 339 338 335 327 320 313 307 311 316 314 313 314 314 314 314 316 317 313 305 295 286 279 274 272 271 270 270 269 268 265 263 262 261 261 260 257 256 255 252 252 256
262 222 174 217 330 319 348 67 72 228 278 299 246 161 211 301 290 223 147 114 81 70 84 89 87 85 87 90 89 89 84 78 65 35 24 22 35 76 88 72 55 48 35 23 18 12 8 10 7 1 357 353 350 347 343 341 336 332 331 327 319 313 308 310 316 315 312 311 310 310 311 311 312 313 310 303 293 283 276 271 270 269 268 268 266 264 263 263 261 260 260 257 256 253 249 247 251
249 216 199 266 281 264 140 102 247 248 10 321 285 152 166 277 281 31 101 104 88 100 113 105 98 97 98 101 103 100 91 84 68 46 21 9 30 78 82 62 49 38 25 19 17 13 11 10 3 357 355 351 347 345 342 339 334 326 323 320 314 312 311 312 313 310 308 308 305 305 306 306 307 307 307 306 298 288 279 274 270 267 266 266 265 263 263 262 261 260 259 257 255 253 249 247 249
248 204 267 319 52 158 116 134 220 31 43 274 263 179 145 281 269 109 91 111 134 153 138 119 114 109 111 109 106 96 80 71 54 42 26 17 43 82 69 49 38 24 19 20 19 18 14 7 359 356 356 353 348 345 342 338 333 325 318 314 309 308 309 309 308 303 302 302 298 298 300 301 301 300 299 301 298 291 282 275 271 268 267 266 263 261 261 260 259 259 259 257 255 253 251 248 248
296 51 354 355 27 63 76 118 102 52 318 257 251 194 130 319 276 188 176 177 156 151 131 119 108 100 109 108 101 93 78 66 46 38 28 25 60 78 51 35 25 16 18 23 21 17 12 6 1 357 357 356 351 345 342 338 335 329 322 315 309 306 305 305 303 299 298 296 293 294 297 297 295 293 293 294 294 292 284 276 271 268 267 265 262 260 259 258 258 258 258 257 255 253 252 250 248
41 56 22 0 355 25 31 2 49 77 264 264 268 182 128 196 264 213 202 136 136 141 137 131 123 117 114 96 88 86 82 69 48 42 24 22 51 58 37 24 17 16 20 22 18 14 12 9 3 359 -0 0 356 350 345 340 337 333 328 321 313 308 304 301 299 298 298 295 293 295 296 295 292 290 288 286 287 291 287 280 273 268 264 261 261 260 258 257 257 256 255 254 253 252 251 250 248
49 51 46 29 347 355 0 327 353 182 247 258 241 73 145 228 251 190 130 115 146 159 148 140 134 127 108 88 80 72 75 68 47 42 29 29 44 42 27 17 13 16 19 18 16 15 11 7 4 3 4 2 358 353 348 342 337 335 333 328 322 315 308 302 299 299 299 297 295 295 295 293 290 287 285 282 283 287 287 285 279 272 267 264 262 259 257 257 255 254 254 252 252 251 250 249 247
45 61 86 88 51 357 302 284 297 265 259 250 154 80 271 277 319 177 155 143 157 144 126 130 122 113 100 83 70 55 52 50 41 42 44 42 40 29 18 13 13 16 18 16 13 10 7 5 7 8 5 360 355 350 346 341 336 333 334 333 329 323 316 309 304 301 300 299 297 296 296 293 289 286 284 281 281 282 282 283 283 280 275 270 264 260 257 256 254 253 253 252 251 251 250 249 248
237 195 142 140 148 162 245 242 238 263 278 283 299 345 245 267 144 185 170 133 119 99 91 92 84 87 83 65 54 45 32 28 35 45 46 36 29 21 14 14 16 15 13 11 8 7 8 10 10 6 359 354 349 345 342 337 332 331 334 334 331 327 321 316 311 306 303 301 299 299 298 296 292 289 287 282 278 276 275 276 278 280 280 275 268 261 258 256 253 251 252 252 251 251 250 249 248
266 162 100 161 189 163 206 221 219 255 312 309 285 248 248 12 105 160 90 83 83 75 69 66 54 52 62 57 46 40 28 27 39 46 38 29 26 23 19 17 13 10 10 10 10 11 11 7 2 356 351 346 343 340 337 333 329 330 332 331 328 325 322 319 316 312 309 307 306 305 302 300 297 295 290 282 275 271 270 269 271 275 279 278 272 264 259 256 254 251 250 250 250 250 249 248 248
338 67 219 232 193 138 148 272 290 14 343 280 233 200 350 44 81 11 57 74 72 63 62 59 46 44 57 55 42 37 32 33 39 38 34 32 29 25 21 16 11 11 15 15 13 9 4 359 354 349 345 341 339 336 333 331 329 330 330 328 325 323 321 321 320 318 317 315 313 309 306 303 300 297 291 283 275 269 266 263 264 268 273 275 272 266 260 256 254 252 251 250 250 249 249 248 248
134 216 254 261 100 93 99 297 342 12 299 265 231 194 195 162 196 219 82 80 63 54 59 50 33 44 55 50 42 31 22 20 17 25 35 36 30 23 19 17 17 19 19 15 8 1 357 354 350 346 341 338 336 334 332 331 331 331 329 326 325 326 326 326 326 325 323 321 318 315 312 309 306 301 293 284 275 267 263 260 260 263 265 266 265 262 260 257 254 253 252 251 251 250 249 249 248
150 213 260 355 67 321 3 92 314 327 286 281 290 265 222 207 199 175 135 101 78 51 44 41 32 48 57 43 30 12 4 1 290 0 39 34 25 20 20 21 21 19 12 5 -0 356 352 349 346 342 338 336 336 334 333 333 334 332 328 328 330 331 332 331 331 330 328 325 322 320 318 315 313 309 299 287 276 266 262 259 257 258 260 260 259 258 259 258 255 253 251 251 252 250 249 249 248
8 0 339 7 165 192 202 182 184 218 271 281 308 319 301 271 197 138 131 127 110 63 37 43 42 55 58 29 12 357 351 6 41 36 33 25 21 22 24 21 14 8 3 359 356 351 347 343 341 339 337 337 336 335 336 337 337 334 331 332 333 333 335 335 334 332 329 325 322 320 321 321 321 319 313 299 283 270 263 259 257 259 260 260 259 257 259 260 257 253 251 251 252 250 249 249 249
72 52 332 299 266 199 223 243 175 149 218 250 295 298 296 333 65 120 130 143 123 82 60 56 48 49 35 12 4 356 357 19 36 34 25 22 24 25 20 12 4 -0 358 356 353 347 343 340 339 340 340 338 336 337 341 340 337 335 334 334 335 336 337 335 332 328 324 321 321 325 329 330 330 329 327 316 297 280 271 267 266 266 264 261 258 257 260 260 255 252 252 252 253 251 249 248 248
156 162 197 191 175 113 333 288 281 109 173 193 221 278 286 0 81 117 121 115 89 70 67 61 47 35 15 3 2 2 11 27 34 29 24 26 25 18 8 1 358 357 355 354 350 345 341 340 342 343 341 338 336 340 342 339 337 337 337 336 336 335 333 331 329 325 322 323 329 334 334 333 332 331 331 327 316 302 289 280 275 271 268 262 258 259 261 258 253 251 252 252 253 252 249 248 246